Tracking 30923 objects as of 1-Jul-2025
HD Live streaming from Space Station
objects crossing your sky now

ONEWEB-0436

Track ONEWEB-0436 now!
10-day predictions
ONEWEB-0436 is classified as:


NORAD ID: 51633
Int'l Code: 2022-012M
Perigee: 1,199.3 km
Apogee: 1,202.4 km
Inclination: 87.9 °
Period: 109.3 minutes
Semi major axis: 7571 km
RCS: Unknown
Launch date: February 10, 2022
Source: United Kingdom (UK)
Launch site: FRENCH GUIANA (FRGUI)
Your satellite tracking list
SL-16 R/B
Track 1 satellite(s)




NASA's NSSDC Master Catalog

Two Line Element Set (TLE):
1 51633U 22012M   25181.39993836  .00000057  00000-0  11407-3 0  9990
2 51633  87.9058  75.8763 0002092  82.5799 277.5571 13.17648778167354
Source of the keplerian elements: AFSPC